Time,TemperatureF,DewpointF,PressureIn,WindDirection,WindDirectionDegrees,WindSpeedMPH,WindSpeedGustMPH,Humidity,HourlyPrecipIn,Conditions,Clouds,dailyrainin,SoftwareType,DateUTC
2013-03-26 00:03:00,27.7,-1.1,30.33,NNW,328,6.0,8.0,28,0.00,,,0.00,meteohub,2013-03-26 05:03:00,
2013-03-26 00:08:00,27.7,1.0,30.33,North,1,5.0,8.0,31,0.00,,,0.00,meteohub,2013-03-26 05:08:00,
2013-03-26 00:13:00,27.7,-1.1,30.33,NW,318,8.0,8.0,28,0.00,,,0.00,meteohub,2013-03-26 05:13:00,
2013-03-26 00:18:00,27.5,0.9,30.33,North,0,5.0,8.0,31,0.00,,,0.00,meteohub,2013-03-26 05:18:00,
2013-03-26 00:24:00,27.5,0.9,30.33,NNW,331,5.0,8.0,31,0.00,,,0.00,meteohub,2013-03-26 05:24:00,
2013-03-26 00:29:00,27.5,0.9,30.33,North,353,5.0,8.0,31,0.00,,,0.00,meteohub,2013-03-26 05:29:00,
2013-03-26 00:34:00,27.5,-1.3,30.33,NNW,348,8.0,8.0,28,0.00,,,0.00,meteohub,2013-03-26 05:34:00,
2013-03-26 00:39:00,27.3,-3.1,30.33,NNW,337,5.0,8.0,26,0.00,,,0.00,meteohub,2013-03-26 05:39:00,
2013-03-26 00:44:00,27.5,-1.3,30.33,NNW,337,8.0,8.0,28,0.00,,,0.00,meteohub,2013-03-26 05:44:00,
2013-03-26 00:49:00,27.5,-2.9,30.30,North,350,6.0,8.0,26,0.00,,,0.00,meteohub,2013-03-26 05:49:00,
2013-03-26 00:54:00,27.5,-2.9,30.30,NNW,343,5.0,8.0,26,0.00,,,0.00,meteohub,2013-03-26 05:54:00,
2013-03-26 00:59:00,27.3,-1.5,30.30,NNW,333,3.0,8.0,28,0.00,,,0.00,meteohub,2013-03-26 05:59:00,
2013-03-26 01:05:00,27.3,-1.5,30.33,NNW,344,5.0,7.0,28,0.00,,,0.00,meteohub,2013-03-26 06:05:00,
2013-03-26 01:10:00,27.3,-1.5,30.33,WNW,297,4.0,6.0,28,0.00,,,0.00,meteohub,2013-03-26 06:10:00,
2013-03-26 01:15:00,27.5,0.9,30.33,NW,321,3.0,6.0,31,0.00,,,0.00,meteohub,2013-03-26 06:15:00,
2013-03-26 01:20:00,27.5,-1.3,30.33,WNW,302,3.0,6.0,28,0.00,,,0.00,meteohub,2013-03-26 06:20:00,
2013-03-26 01:25:00,27.5,-1.3,30.33,WNW,303,0.0,5.0,28,0.00,,,0.00,meteohub,2013-03-26 06:25:00,
2013-03-26 01:31:00,27.3,-1.5,30.33,NNW,348,4.0,5.0,28,0.00,,,0.00,meteohub,2013-03-26 06:31:00,
2013-03-26 01:36:00,27.5,0.9,30.33,NNW,341,6.0,6.0,31,0.00,,,0.00,meteohub,2013-03-26 06:36:00,
2013-03-26 01:41:00,27.5,-1.3,30.33,NNW,339,8.0,8.0,28,0.00,,,0.00,meteohub,2013-03-26 06:41:00,
2013-03-26 01:46:00,27.3,-1.5,30.33,NNW,341,6.0,8.0,28,0.00,,,0.00,meteohub,2013-03-26 06:46:00,
2013-03-26 01:52:00,27.3,-1.5,30.33,NNW,346,5.0,8.0,28,0.00,,,0.00,meteohub,2013-03-26 06:52:00,
2013-03-26 01:57:00,27.3,-1.5,30.33,NNW,346,5.0,8.0,28,0.00,,,0.00,meteohub,2013-03-26 06:57:00,
2013-03-26 02:02:00,27.3,-1.5,30.33,NNW,341,6.0,8.0,28,0.00,,,0.00,meteohub,2013-03-26 07:02:00,
2013-03-26 02:07:00,27.3,-1.5,30.33,NNW,338,6.0,8.0,28,0.00,,,0.00,meteohub,2013-03-26 07:07:00,
2013-03-26 02:12:00,27.3,-1.5,30.33,NNW,330,3.0,8.0,28,0.00,,,0.00,meteohub,2013-03-26 07:12:00,
2013-03-26 02:17:00,27.3,-1.5,30.33,North,357,5.0,7.0,28,0.00,,,0.00,meteohub,2013-03-26 07:17:00,
2013-03-26 02:22:00,27.3,-1.5,30.33,NNW,344,8.0,8.0,28,0.00,,,0.00,meteohub,2013-03-26 07:22:00,
2013-03-26 02:27:00,27.1,-3.3,30.33,NW,318,8.0,8.0,26,0.00,,,0.00,meteohub,2013-03-26 07:27:00,
2013-03-26 02:32:00,27.1,-3.3,30.33,NNW,341,6.0,9.0,26,0.00,,,0.00,meteohub,2013-03-26 07:32:00,
2013-03-26 02:38:00,27.1,-1.7,30.33,NNW,334,5.0,9.0,28,0.00,,,0.00,meteohub,2013-03-26 07:38:00,
2013-03-26 02:43:00,27.1,-3.3,30.33,NNW,340,5.0,9.0,26,0.00,,,0.00,meteohub,2013-03-26 07:43:00,
2013-03-26 02:48:00,27.1,-3.3,30.30,NNW,344,4.0,9.0,26,0.00,,,0.00,meteohub,2013-03-26 07:48:00,
2013-03-26 02:53:00,27.0,-3.5,30.30,NNW,338,5.0,6.0,26,0.00,,,0.00,meteohub,2013-03-26 07:53:00,
2013-03-26 02:59:00,27.0,-3.5,30.30,NNW,346,5.0,7.0,26,0.00,,,0.00,meteohub,2013-03-26 07:59:00,
2013-03-26 03:04:00,27.0,-3.5,30.30,NNW,332,6.0,7.0,26,0.00,,,0.00,meteohub,2013-03-26 08:04:00,
2013-03-26 03:09:00,27.0,-3.5,30.30,NNW,337,4.0,7.0,26,0.00,,,0.00,meteohub,2013-03-26 08:09:00,
2013-03-26 03:14:00,27.0,-3.5,30.30,North,353,6.0,7.0,26,0.00,,,0.00,meteohub,2013-03-26 08:14:00,
2013-03-26 03:19:00,27.0,-3.5,30.30,NW,321,4.0,7.0,26,0.00,,,0.00,meteohub,2013-03-26 08:19:00,
2013-03-26 03:24:00,27.0,-3.5,30.30,NNE,20,3.0,6.0,26,0.00,,,0.00,meteohub,2013-03-26 08:24:00,
2013-03-26 03:30:00,27.0,-3.5,30.30,North,6,4.0,8.0,26,0.00,,,0.00,meteohub,2013-03-26 08:30:00,
2013-03-26 03:35:00,26.8,-3.5,30.30,NNW,335,3.0,8.0,26,0.00,,,0.00,meteohub,2013-03-26 08:35:00,
2013-03-26 03:40:00,26.8,-3.5,30.30,North,5,6.0,6.0,26,0.00,,,0.00,meteohub,2013-03-26 08:40:00,
2013-03-26 03:45:00,26.8,-3.5,30.30,NNW,330,5.0,8.0,26,0.00,,,0.00,meteohub,2013-03-26 08:45:00,
2013-03-26 03:50:00,26.8,-3.5,30.30,North,3,5.0,8.0,26,0.00,,,0.00,meteohub,2013-03-26 08:50:00,
2013-03-26 03:55:00,26.6,-3.6,30.30,NNW,341,6.0,8.0,26,0.00,,,0.00,meteohub,2013-03-26 08:55:00,
2013-03-26 04:07:00,26.6,-3.6,30.30,NNE,12,5.0,6.0,26,0.00,,,0.00,meteohub,2013-03-26 09:07:00,
2013-03-26 04:12:00,26.4,-3.8,30.30,North,6,0.0,6.0,26,0.00,,,0.00,meteohub,2013-03-26 09:12:00,
2013-03-26 04:17:00,26.2,-4.0,30.30,NNE,13,5.0,6.0,26,0.00,,,0.00,meteohub,2013-03-26 09:17:00,
2013-03-26 04:22:00,26.2,-4.0,30.30,NNE,25,5.0,8.0,26,0.00,,,0.00,meteohub,2013-03-26 09:22:00,
2013-03-26 04:28:00,26.2,-4.0,30.30,North,10,3.0,8.0,26,0.00,,,0.00,meteohub,2013-03-26 09:28:00,
2013-03-26 04:33:00,26.1,-4.2,30.30,North,7,2.0,8.0,26,0.00,,,0.00,meteohub,2013-03-26 09:33:00,
2013-03-26 04:52:00,26.1,-4.2,30.30,NNE,17,4.0,8.0,26,0.00,,,0.00,meteohub,2013-03-26 09:52:00,
2013-03-26 05:09:00,26.1,-4.2,30.30,North,2,0.0,6.0,26,0.00,,,0.00,meteohub,2013-03-26 10:09:00,
2013-03-26 05:15:00,26.1,-4.2,30.30,North,2,3.0,5.0,26,0.00,,,0.00,meteohub,2013-03-26 10:15:00,
2013-03-26 05:20:00,26.1,-4.2,30.30,North,3,3.0,6.0,26,0.00,,,0.00,meteohub,2013-03-26 10:20:00,
2013-03-26 05:26:00,26.1,-4.2,30.30,North,6,0.0,6.0,26,0.00,,,0.00,meteohub,2013-03-26 10:26:00,
2013-03-26 05:31:00,26.1,-4.2,30.30,North,6,0.0,6.0,26,0.00,,,0.00,meteohub,2013-03-26 10:31:00,
2013-03-26 05:36:00,26.1,-4.2,30.30,NNW,345,6.0,6.0,26,0.00,,,0.00,meteohub,2013-03-26 10:36:00,
2013-03-26 05:41:00,25.9,-4.4,30.30,NNW,331,6.0,6.0,26,0.00,,,0.00,meteohub,2013-03-26 10:41:00,
2013-03-26 05:47:00,25.9,-4.4,30.30,NNW,348,4.0,6.0,26,0.00,,,0.00,meteohub,2013-03-26 10:47:00,
2013-03-26 05:56:00,25.9,-4.4,30.30,North,357,8.0,8.0,26,0.00,,,0.00,meteohub,2013-03-26 10:56:00,
2013-03-26 06:02:00,25.9,-4.4,30.30,NNW,346,3.0,8.0,26,0.00,,,0.00,meteohub,2013-03-26 11:02:00,
2013-03-26 06:07:00,25.9,-4.4,30.30,NW,324,6.0,8.0,26,0.00,,,0.00,meteohub,2013-03-26 11:07:00,
2013-03-26 06:12:00,25.7,-4.5,30.30,NNE,27,4.0,8.0,26,0.00,,,0.00,meteohub,2013-03-26 11:12:00,
2013-03-26 06:17:00,25.7,-4.5,30.30,NNE,18,3.0,6.0,26,0.00,,,0.00,meteohub,2013-03-26 11:17:00,
2013-03-26 06:22:00,25.7,-4.5,30.30,North,3,3.0,6.0,26,0.00,,,0.00,meteohub,2013-03-26 11:22:00,
2013-03-26 06:28:00,25.7,-4.5,30.30,NNW,330,5.0,6.0,26,0.00,,,0.00,meteohub,2013-03-26 11:28:00,
2013-03-26 06:33:00,25.7,-4.5,30.33,NNE,16,6.0,6.0,26,0.00,,,0.00,meteohub,2013-03-26 11:33:00,
2013-03-26 06:38:00,25.5,-4.5,30.33,NNW,340,4.0,6.0,26,0.00,,,0.00,meteohub,2013-03-26 11:38:00,
2013-03-26 06:44:00,25.5,-4.5,30.33,NNW,338,4.0,6.0,26,0.00,,,0.00,meteohub,2013-03-26 11:44:00,
2013-03-26 06:49:00,25.5,-4.5,30.30,NNW,345,4.0,7.0,26,0.00,,,0.00,meteohub,2013-03-26 11:49:00,
2013-03-26 06:54:00,25.3,-4.7,30.30,NNW,336,5.0,7.0,26,0.00,,,0.00,meteohub,2013-03-26 11:54:00,
2013-03-26 06:59:00,25.3,-4.7,30.30,North,357,5.0,7.0,26,0.00,,,0.00,meteohub,2013-03-26 11:59:00,
2013-03-26 07:05:00,25.2,-4.9,30.33,WNW,295,0.0,6.0,26,0.00,,,0.00,meteohub,2013-03-26 12:05:00,
2013-03-26 07:10:00,24.6,-4.5,30.33,West,278,0.0,6.0,27,0.00,,,0.00,meteohub,2013-03-26 12:10:00,
2013-03-26 07:15:00,24.3,-3.5,30.33,West,262,4.0,6.0,29,0.00,,,0.00,meteohub,2013-03-26 12:15:00,
2013-03-26 07:20:00,23.7,-3.8,30.33,West,275,0.0,6.0,29,0.00,,,0.00,meteohub,2013-03-26 12:20:00,
2013-03-26 07:26:00,23.2,-2.4,30.33,West,269,3.0,6.0,32,0.00,,,0.00,meteohub,2013-03-26 12:26:00,
2013-03-26 07:31:00,22.8,-2.6,30.33,WNW,284,3.0,6.0,32,0.00,,,0.00,meteohub,2013-03-26 12:31:00,
2013-03-26 07:36:00,22.3,-3.1,30.33,WSW,257,0.0,6.0,32,0.00,,,0.00,meteohub,2013-03-26 12:36:00,
2013-03-26 07:42:00,22.1,-3.3,30.33,NW,312,4.0,5.0,32,0.00,,,0.00,meteohub,2013-03-26 12:42:00,
2013-03-26 07:47:00,21.7,-2.9,30.30,WNW,303,0.0,6.0,33,0.00,,,0.00,meteohub,2013-03-26 12:47:00,
2013-03-26 07:52:00,21.7,-2.9,30.30,West,279,4.0,6.0,33,0.00,,,0.00,meteohub,2013-03-26 12:52:00,
2013-03-26 07:57:00,21.6,-3.1,30.30,NW,304,0.0,6.0,33,0.00,,,0.00,meteohub,2013-03-26 12:57:00,
2013-03-26 08:03:00,21.4,-3.3,30.33,WNW,300,3.0,6.0,33,0.00,,,0.00,meteohub,2013-03-26 13:03:00,
2013-03-26 08:08:00,21.4,-3.3,30.33,NNW,332,0.0,6.0,33,0.00,,,0.00,meteohub,2013-03-26 13:08:00,
2013-03-26 08:14:00,21.6,-2.6,30.33,NW,308,0.0,5.0,34,0.00,,,0.00,meteohub,2013-03-26 13:14:00,
2013-03-26 08:19:00,21.6,-2.6,30.33,NW,310,0.0,5.0,34,0.00,,,0.00,meteohub,2013-03-26 13:19:00,
2013-03-26 08:24:00,21.6,-2.6,30.33,NW,320,0.0,5.0,34,0.00,,,0.00,meteohub,2013-03-26 13:24:00,
2013-03-26 08:29:00,21.7,-2.4,30.33,NW,319,0.0,5.0,34,0.00,,,0.00,meteohub,2013-03-26 13:29:00,
2013-03-26 08:34:00,22.3,-1.8,30.33,NW,322,0.0,4.0,34,0.00,,,0.00,meteohub,2013-03-26 13:34:00,
2013-03-26 08:40:00,23.2,-1.1,30.33,NW,322,0.0,0.0,34,0.00,,,0.00,meteohub,2013-03-26 13:40:00,
2013-03-26 08:45:00,23.7,-1.1,30.33,NW,322,0.0,0.0,33,0.00,,,0.00,meteohub,2013-03-26 13:45:00,
2013-03-26 08:50:00,24.1,-0.9,30.33,NW,321,0.0,0.0,33,0.00,,,0.00,meteohub,2013-03-26 13:50:00,
2013-03-26 08:55:00,23.9,-1.1,30.33,NW,321,0.0,0.0,33,0.00,,,0.00,meteohub,2013-03-26 13:55:00,
2013-03-26 09:00:00,24.3,-0.8,30.33,NW,323,0.0,0.0,33,0.00,,,0.00,meteohub,2013-03-26 14:00:00,
2013-03-26 09:05:00,24.8,-0.2,30.33,NNW,342,0.0,0.0,33,0.00,,,0.00,meteohub,2013-03-26 14:05:00,
2013-03-26 09:11:00,25.2,-0.6,30.33,NNW,340,0.0,0.0,32,0.00,,,0.00,meteohub,2013-03-26 14:11:00,
2013-03-26 09:16:00,25.5,-0.2,30.33,NNW,337,0.0,0.0,32,0.00,,,0.00,meteohub,2013-03-26 14:16:00,
2013-03-26 09:21:00,32.5,8.6,30.33,NNW,337,0.0,0.0,36,0.00,,,0.00,meteohub,2013-03-26 14:21:00,
2013-03-26 09:27:00,34.5,6.3,30.33,NNW,337,0.0,0.0,30,0.00,,,0.00,meteohub,2013-03-26 14:27:00,
2013-03-26 09:32:00,32.0,2.5,30.33,West,275,3.0,0.0,28,0.00,,,0.00,meteohub,2013-03-26 14:32:00,
2013-03-26 09:38:00,30.2,1.0,30.33,WNW,292,0.0,4.0,28,0.00,,,0.00,meteohub,2013-03-26 14:38:00,
2013-03-26 09:43:00,29.5,-2.0,30.33,WNW,291,0.0,4.0,25,0.00,,,0.00,meteohub,2013-03-26 14:43:00,
2013-03-26 09:48:00,28.9,-2.6,30.33,West,275,0.0,4.0,25,0.00,,,0.00,meteohub,2013-03-26 14:48:00,
2013-03-26 09:53:00,29.7,-1.8,30.33,West,268,4.0,4.0,25,0.00,,,0.00,meteohub,2013-03-26 14:53:00,
2013-03-26 09:58:00,30.7,-0.9,30.33,West,261,3.0,5.0,25,0.00,,,0.00,meteohub,2013-03-26 14:58:00,
2013-03-26 10:04:00,31.3,-0.4,30.33,West,271,3.0,6.0,25,0.00,,,0.00,meteohub,2013-03-26 15:04:00,
2013-03-26 10:09:00,31.5,-0.4,30.33,West,260,3.0,6.0,25,0.00,,,0.00,meteohub,2013-03-26 15:09:00,
2013-03-26 10:14:00,31.8,0.0,30.33,NW,311,4.0,8.0,25,0.00,,,0.00,meteohub,2013-03-26 15:14:00,
2013-03-26 10:19:00,32.0,0.1,30.33,NW,305,2.0,8.0,25,0.00,,,0.00,meteohub,2013-03-26 15:19:00,
2013-03-26 10:24:00,31.8,0.0,30.33,West,272,4.0,8.0,25,0.00,,,0.00,meteohub,2013-03-26 15:24:00,
2013-03-26 10:30:00,32.0,0.1,30.33,West,274,0.0,6.0,25,0.00,,,0.00,meteohub,2013-03-26 15:30:00,
2013-03-26 10:35:00,32.4,0.5,30.33,WNW,298,0.0,6.0,25,0.00,,,0.00,meteohub,2013-03-26 15:35:00,
2013-03-26 10:40:00,32.7,-0.9,30.33,NNW,336,3.0,5.0,23,0.00,,,0.00,meteohub,2013-03-26 15:40:00,
2013-03-26 10:46:00,32.9,-0.9,30.33,NW,309,7.0,7.0,23,0.00,,,0.00,meteohub,2013-03-26 15:46:00,
2013-03-26 10:51:00,32.7,-0.9,30.33,NW,312,0.0,7.0,23,0.00,,,0.00,meteohub,2013-03-26 15:51:00,
2013-03-26 10:57:00,33.1,-0.8,30.33,SSW,213,4.0,7.0,23,0.00,,,0.00,meteohub,2013-03-26 15:57:00,
2013-03-26 11:02:00,33.4,-0.4,30.33,NW,319,6.0,7.0,23,0.00,,,0.00,meteohub,2013-03-26 16:02:00,
2013-03-26 11:07:00,34.0,-0.9,30.33,West,279,0.0,6.0,22,0.00,,,0.00,meteohub,2013-03-26 16:07:00,
2013-03-26 11:12:00,34.5,-0.4,30.33,WNW,299,4.0,6.0,22,0.00,,,0.00,meteohub,2013-03-26 16:12:00,
2013-03-26 11:17:00,34.3,-0.6,30.33,North,353,3.0,8.0,22,0.00,,,0.00,meteohub,2013-03-26 16:17:00,
2013-03-26 11:22:00,34.3,-0.6,30.33,West,280,3.0,8.0,22,0.00,,,0.00,meteohub,2013-03-26 16:22:00,
2013-03-26 11:27:00,34.5,-0.4,30.33,West,278,0.0,8.0,22,0.00,,,0.00,meteohub,2013-03-26 16:27:00,
2013-03-26 11:32:00,34.9,0.0,30.33,NNE,12,0.0,5.0,22,0.00,,,0.00,meteohub,2013-03-26 16:32:00,
2013-03-26 11:37:00,34.9,0.0,30.33,North,357,0.0,5.0,22,0.00,,,0.00,meteohub,2013-03-26 16:37:00,
2013-03-26 11:42:00,34.7,-0.2,30.33,NNW,340,0.0,4.0,22,0.00,,,0.00,meteohub,2013-03-26 16:42:00,
2013-03-26 11:47:00,34.7,-0.2,30.33,North,8,0.0,6.0,22,0.00,,,0.00,meteohub,2013-03-26 16:47:00,
2013-03-26 11:52:00,35.1,0.0,30.33,NW,320,5.0,6.0,22,0.00,,,0.00,meteohub,2013-03-26 16:52:00,
2013-03-26 11:57:00,35.4,0.3,30.33,WNW,295,5.0,6.0,22,0.00,,,0.00,meteohub,2013-03-26 16:57:00,
2013-03-26 12:02:00,35.8,0.7,30.33,NNW,336,0.0,5.0,22,0.00,,,0.00,meteohub,2013-03-26 17:02:00,
2013-03-26 12:08:00,36.1,0.9,30.33,NW,313,0.0,5.0,22,0.00,,,0.00,meteohub,2013-03-26 17:08:00,
2013-03-26 12:13:00,36.7,1.4,30.33,WNW,283,5.0,5.0,22,0.00,,,0.00,meteohub,2013-03-26 17:13:00,
2013-03-26 12:18:00,36.3,1.0,30.33,North,353,3.0,8.0,22,0.00,,,0.00,meteohub,2013-03-26 17:18:00,
2013-03-26 12:23:00,36.1,0.9,30.33,WNW,303,0.0,8.0,22,0.00,,,0.00,meteohub,2013-03-26 17:23:00,
2013-03-26 12:28:00,36.3,1.0,30.33,WSW,256,4.0,8.0,22,0.00,,,0.00,meteohub,2013-03-26 17:28:00,
2013-03-26 12:33:00,36.5,1.2,30.30,NNW,341,0.0,6.0,22,0.00,,,0.00,meteohub,2013-03-26 17:33:00,
2013-03-26 12:38:00,36.9,1.6,30.30,NNW,348,0.0,6.0,22,0.00,,,0.00,meteohub,2013-03-26 17:38:00,
2013-03-26 12:43:00,37.2,1.9,30.30,WNW,289,5.0,6.0,22,0.00,,,0.00,meteohub,2013-03-26 17:43:00,
2013-03-26 12:49:00,37.4,1.0,30.30,West,280,4.0,6.0,21,0.00,,,0.00,meteohub,2013-03-26 17:49:00,
2013-03-26 12:54:00,37.8,1.4,30.30,SW,229,4.0,6.0,21,0.00,,,0.00,meteohub,2013-03-26 17:54:00,
2013-03-26 12:59:00,38.7,2.1,30.30,WSW,243,3.0,6.0,21,0.00,,,0.00,meteohub,2013-03-26 17:59:00,
2013-03-26 13:04:00,39.7,3.0,30.30,WSW,252,0.0,6.0,21,0.00,,,0.00,meteohub,2013-03-26 18:04:00,
2013-03-26 13:09:00,40.1,3.2,30.30,SSW,210,3.0,5.0,21,0.00,,,0.00,meteohub,2013-03-26 18:09:00,
2013-03-26 13:14:00,39.9,3.2,30.30,WSW,240,0.0,6.0,21,0.00,,,0.00,meteohub,2013-03-26 18:14:00,
2013-03-26 13:20:00,40.5,3.6,30.30,West,259,6.0,6.0,21,0.00,,,0.00,meteohub,2013-03-26 18:20:00,
2013-03-26 13:25:00,40.5,3.6,30.30,SSW,205,4.0,8.0,21,0.00,,,0.00,meteohub,2013-03-26 18:25:00,
2013-03-26 13:30:00,40.1,3.2,30.27,SW,229,0.0,8.0,21,0.00,,,0.00,meteohub,2013-03-26 18:30:00,
2013-03-26 13:36:00,40.1,3.2,30.27,West,277,0.0,6.0,21,0.00,,,0.00,meteohub,2013-03-26 18:36:00,
2013-03-26 13:41:00,40.6,3.7,30.27,NW,324,4.0,6.0,21,0.00,,,0.00,meteohub,2013-03-26 18:41:00,
2013-03-26 13:46:00,40.5,3.6,30.27,SW,236,0.0,6.0,21,0.00,,,0.00,meteohub,2013-03-26 18:46:00,
2013-03-26 13:52:00,40.6,3.7,30.27,SSW,193,0.0,8.0,21,0.00,,,0.00,meteohub,2013-03-26 18:52:00,
2013-03-26 13:57:00,41.0,4.1,30.27,SSW,211,3.0,8.0,21,0.00,,,0.00,meteohub,2013-03-26 18:57:00,
2013-03-26 14:02:00,41.4,4.3,30.27,WSW,257,3.0,8.0,21,0.00,,,0.00,meteohub,2013-03-26 19:02:00,
2013-03-26 14:07:00,42.1,5.0,30.27,WSW,252,3.0,6.0,21,0.00,,,0.00,meteohub,2013-03-26 19:07:00,
2013-03-26 14:12:00,42.3,5.2,30.27,WSW,246,0.0,5.0,21,0.00,,,0.00,meteohub,2013-03-26 19:12:00,
2013-03-26 14:17:00,42.4,5.2,30.27,NW,311,4.0,6.0,21,0.00,,,0.00,meteohub,2013-03-26 19:17:00,
2013-03-26 14:23:00,42.1,5.0,30.27,SSE,156,9.0,9.0,21,0.00,,,0.00,meteohub,2013-03-26 19:23:00,
2013-03-26 14:28:00,41.2,4.1,30.27,SSE,157,6.0,8.0,21,0.00,,,0.00,meteohub,2013-03-26 19:28:00,
2013-03-26 14:33:00,40.5,3.6,30.27,SSE,158,4.0,9.0,21,0.00,,,0.00,meteohub,2013-03-26 19:33:00,
2013-03-26 14:38:00,40.8,3.9,30.27,WSW,244,6.0,9.0,21,0.00,,,0.00,meteohub,2013-03-26 19:38:00,
2013-03-26 14:43:00,41.2,4.1,30.27,SW,225,5.0,10.0,21,0.00,,,0.00,meteohub,2013-03-26 19:43:00,
2013-03-26 14:48:00,41.5,4.5,30.24,SW,227,3.0,10.0,21,0.00,,,0.00,meteohub,2013-03-26 19:48:00,
2013-03-26 14:54:00,41.7,4.6,30.24,WSW,257,0.0,10.0,21,0.00,,,0.00,meteohub,2013-03-26 19:54:00,
2013-03-26 14:59:00,41.7,4.6,30.24,SSE,161,4.0,8.0,21,0.00,,,0.00,meteohub,2013-03-26 19:59:00,
2013-03-26 15:04:00,42.1,5.0,30.24,WSW,251,3.0,8.0,21,0.00,,,0.00,meteohub,2013-03-26 20:04:00,
2013-03-26 15:09:00,42.4,5.2,30.24,West,266,3.0,6.0,21,0.00,,,0.00,meteohub,2013-03-26 20:09:00,
2013-03-26 15:14:00,42.3,5.2,30.24,SSE,162,5.0,6.0,21,0.00,,,0.00,meteohub,2013-03-26 20:14:00,
2013-03-26 15:20:00,41.5,4.5,30.24,SSE,149,2.0,9.0,21,0.00,,,0.00,meteohub,2013-03-26 20:20:00,
2013-03-26 15:25:00,41.9,4.8,30.24,SW,220,4.0,9.0,21,0.00,,,0.00,meteohub,2013-03-26 20:25:00,
2013-03-26 15:30:00,41.7,4.6,30.24,SSW,213,0.0,8.0,21,0.00,,,0.00,meteohub,2013-03-26 20:30:00,
2013-03-26 15:36:00,41.9,4.8,30.24,SSW,194,3.0,5.0,21,0.00,,,0.00,meteohub,2013-03-26 20:36:00,
2013-03-26 15:41:00,41.9,4.8,30.24,SSE,149,7.0,10.0,21,0.00,,,0.00,meteohub,2013-03-26 20:41:00,
2013-03-26 15:46:00,42.1,5.0,30.24,South,169,6.0,10.0,21,0.00,,,0.00,meteohub,2013-03-26 20:46:00,
2013-03-26 15:52:00,42.3,5.2,30.24,SSE,164,4.0,9.0,21,0.00,,,0.00,meteohub,2013-03-26 20:52:00,
2013-03-26 15:57:00,41.9,4.8,30.24,SE,146,8.0,9.0,21,0.00,,,0.00,meteohub,2013-03-26 20:57:00,
2013-03-26 16:02:00,41.7,4.6,30.21,SSE,165,4.0,9.0,21,0.00,,,0.00,meteohub,2013-03-26 21:02:00,
2013-03-26 16:08:00,41.9,4.8,30.21,SW,225,6.0,8.0,21,0.00,,,0.00,meteohub,2013-03-26 21:08:00,
2013-03-26 16:13:00,42.1,5.0,30.21,SSE,157,4.0,8.0,21,0.00,,,0.00,meteohub,2013-03-26 21:13:00,
2013-03-26 16:18:00,42.3,5.2,30.21,SSE,149,4.0,8.0,21,0.00,,,0.00,meteohub,2013-03-26 21:18:00,
2013-03-26 16:23:00,42.3,5.2,30.21,SE,145,3.0,8.0,21,0.00,,,0.00,meteohub,2013-03-26 21:23:00,
2013-03-26 16:29:00,42.3,5.2,30.21,West,268,3.0,6.0,21,0.00,,,0.00,meteohub,2013-03-26 21:29:00,
2013-03-26 16:34:00,42.6,5.4,30.21,SW,224,6.0,6.0,21,0.00,,,0.00,meteohub,2013-03-26 21:34:00,
2013-03-26 16:39:00,43.0,4.6,30.21,South,181,4.0,8.0,20,0.00,,,0.00,meteohub,2013-03-26 21:39:00,
2013-03-26 16:45:00,42.8,4.5,30.21,SSE,168,6.0,8.0,20,0.00,,,0.00,meteohub,2013-03-26 21:45:00,
2013-03-26 16:50:00,42.8,4.5,30.21,SSE,147,0.0,8.0,20,0.00,,,0.00,meteohub,2013-03-26 21:50:00,
2013-03-26 16:55:00,42.8,4.5,30.21,South,169,6.0,6.0,20,0.00,,,0.00,meteohub,2013-03-26 21:55:00,
2013-03-26 17:00:00,42.4,5.2,30.21,South,189,0.0,8.0,21,0.00,,,0.00,meteohub,2013-03-26 22:00:00,
2013-03-26 17:06:00,42.4,5.2,30.21,SSE,167,4.0,8.0,21,0.00,,,0.00,meteohub,2013-03-26 22:06:00,
2013-03-26 17:11:00,43.0,4.6,30.21,SSW,210,6.0,11.0,20,0.00,,,0.00,meteohub,2013-03-26 22:11:00,
2013-03-26 17:16:00,43.2,4.8,30.21,SSW,197,0.0,11.0,20,0.00,,,0.00,meteohub,2013-03-26 22:16:00,
2013-03-26 17:21:00,43.0,4.6,30.21,SSW,197,0.0,11.0,20,0.00,,,0.00,meteohub,2013-03-26 22:21:00,
2013-03-26 17:26:00,43.0,4.6,30.21,SSW,195,0.0,8.0,20,0.00,,,0.00,meteohub,2013-03-26 22:26:00,
2013-03-26 17:32:00,43.3,5.0,30.18,SSW,196,3.0,8.0,20,0.00,,,0.00,meteohub,2013-03-26 22:32:00,
2013-03-26 17:37:00,43.0,4.6,30.18,South,174,8.0,8.0,20,0.00,,,0.00,meteohub,2013-03-26 22:37:00,
2013-03-26 17:42:00,42.8,4.5,30.18,SSW,212,5.0,8.0,20,0.00,,,0.00,meteohub,2013-03-26 22:42:00,
2013-03-26 17:47:00,43.0,4.6,30.18,South,169,5.0,10.0,20,0.00,,,0.00,meteohub,2013-03-26 22:47:00,
2013-03-26 17:53:00,42.6,5.4,30.18,ESE,113,5.0,10.0,21,0.00,,,0.00,meteohub,2013-03-26 22:53:00,
2013-03-26 17:58:00,42.4,5.2,30.18,South,172,8.0,10.0,21,0.00,,,0.00,meteohub,2013-03-26 22:58:00,
2013-03-26 18:03:00,42.4,5.2,30.18,SSE,159,4.0,9.0,21,0.00,,,0.00,meteohub,2013-03-26 23:03:00,
2013-03-26 18:08:00,42.4,5.2,30.18,SW,215,6.0,9.0,21,0.00,,,0.00,meteohub,2013-03-26 23:08:00,
2013-03-26 18:13:00,42.4,5.2,30.18,South,170,5.0,9.0,21,0.00,,,0.00,meteohub,2013-03-26 23:13:00,
2013-03-26 18:18:00,42.3,5.2,30.18,SSE,160,8.0,9.0,21,0.00,,,0.00,meteohub,2013-03-26 23:18:00,
2013-03-26 18:23:00,42.3,5.2,30.18,SSE,147,6.0,9.0,21,0.00,,,0.00,meteohub,2013-03-26 23:23:00,
2013-03-26 18:28:00,42.1,5.0,30.18,SSE,163,5.0,9.0,21,0.00,,,0.00,meteohub,2013-03-26 23:28:00,
2013-03-26 18:34:00,42.1,5.0,30.18,South,185,6.0,9.0,21,0.00,,,0.00,meteohub,2013-03-26 23:34:00,
2013-03-26 18:39:00,41.9,4.8,30.18,SSE,162,5.0,9.0,21,0.00,,,0.00,meteohub,2013-03-26 23:39:00,
2013-03-26 18:44:00,41.7,4.6,30.18,SSW,198,5.0,9.0,21,0.00,,,0.00,meteohub,2013-03-26 23:44:00,
2013-03-26 18:49:00,41.7,4.6,30.18,SSE,159,5.0,8.0,21,0.00,,,0.00,meteohub,2013-03-26 23:49:00,
2013-03-26 18:54:00,41.5,4.5,30.18,South,183,4.0,8.0,21,0.00,,,0.00,meteohub,2013-03-26 23:54:00,
2013-03-26 18:59:00,41.5,4.5,30.18,SSW,193,5.0,8.0,21,0.00,,,0.00,meteohub,2013-03-26 23:59:00,
2013-03-26 19:04:00,41.2,4.1,30.18,SSE,167,4.0,8.0,21,0.00,,,0.00,meteohub,2013-03-27 00:04:00,
2013-03-26 19:10:00,41.0,4.1,30.18,SSE,167,5.0,7.0,21,0.00,,,0.00,meteohub,2013-03-27 00:10:00,
2013-03-26 19:15:00,41.0,4.1,30.18,South,175,8.0,8.0,21,0.00,,,0.00,meteohub,2013-03-27 00:15:00,
2013-03-26 19:20:00,40.8,3.9,30.18,South,170,5.0,8.0,21,0.00,,,0.00,meteohub,2013-03-27 00:20:00,
2013-03-26 19:25:00,40.8,3.9,30.18,South,169,5.0,8.0,21,0.00,,,0.00,meteohub,2013-03-27 00:25:00,
2013-03-26 19:30:00,40.6,3.7,30.18,South,172,5.0,6.0,21,0.00,,,0.00,meteohub,2013-03-27 00:30:00,
2013-03-26 19:36:00,40.6,3.7,30.18,South,171,3.0,6.0,21,0.00,,,0.00,meteohub,2013-03-27 00:36:00,
2013-03-26 19:41:00,40.6,3.7,30.18,South,170,4.0,6.0,21,0.00,,,0.00,meteohub,2013-03-27 00:41:00,
2013-03-26 19:46:00,40.5,3.6,30.18,South,171,4.0,5.0,21,0.00,,,0.00,meteohub,2013-03-27 00:46:00,
2013-03-26 19:51:00,40.3,3.4,30.18,SSE,167,3.0,6.0,21,0.00,,,0.00,meteohub,2013-03-27 00:51:00,
2013-03-26 19:57:00,40.1,3.2,30.18,SSE,168,7.0,7.0,21,0.00,,,0.00,meteohub,2013-03-27 00:57:00,
2013-03-26 20:02:00,39.9,3.2,30.18,SSE,164,4.0,7.0,21,0.00,,,0.00,meteohub,2013-03-27 01:02:00,
2013-03-26 20:07:00,39.7,3.0,30.18,SSE,164,4.0,7.0,21,0.00,,,0.00,meteohub,2013-03-27 01:07:00,
2013-03-26 20:12:00,39.7,3.0,30.18,SSE,153,6.0,7.0,21,0.00,,,0.00,meteohub,2013-03-27 01:12:00,
2013-03-26 20:17:00,39.4,2.7,30.18,South,175,4.0,6.0,21,0.00,,,0.00,meteohub,2013-03-27 01:17:00,
2013-03-26 20:23:00,39.4,2.7,30.18,SSE,162,5.0,6.0,21,0.00,,,0.00,meteohub,2013-03-27 01:23:00,
2013-03-26 20:28:00,39.2,2.5,30.18,SSE,165,4.0,6.0,21,0.00,,,0.00,meteohub,2013-03-27 01:28:00,
2013-03-26 20:33:00,39.0,2.3,30.18,SSE,165,3.0,6.0,21,0.00,,,0.00,meteohub,2013-03-27 01:33:00,
2013-03-26 20:38:00,38.8,2.3,30.18,SSE,165,0.0,6.0,21,0.00,,,0.00,meteohub,2013-03-27 01:38:00,
2013-03-26 20:43:00,38.7,2.1,30.18,SSE,149,3.0,6.0,21,0.00,,,0.00,meteohub,2013-03-27 01:43:00,
2013-03-26 20:49:00,38.5,1.9,30.18,SSE,149,4.0,6.0,21,0.00,,,0.00,meteohub,2013-03-27 01:49:00,
2013-03-26 20:54:00,38.5,1.9,30.18,SSE,149,5.0,6.0,21,0.00,,,0.00,meteohub,2013-03-27 01:54:00,
2013-03-26 20:59:00,38.3,1.8,30.18,SSE,155,5.0,6.0,21,0.00,,,0.00,meteohub,2013-03-27 01:59:00,
2013-03-26 21:04:00,38.3,1.8,30.21,SSE,153,3.0,6.0,21,0.00,,,0.00,meteohub,2013-03-27 02:04:00,
2013-03-26 21:10:00,37.9,1.4,30.21,SSE,154,4.0,6.0,21,0.00,,,0.00,meteohub,2013-03-27 02:10:00,
2013-03-26 21:15:00,37.9,1.4,30.21,SSE,155,4.0,6.0,21,0.00,,,0.00,meteohub,2013-03-27 02:15:00,
2013-03-26 21:20:00,37.6,1.2,30.21,SSE,155,4.0,6.0,21,0.00,,,0.00,meteohub,2013-03-27 02:20:00,
2013-03-26 21:25:00,37.4,1.0,30.21,SSE,153,4.0,6.0,21,0.00,,,0.00,meteohub,2013-03-27 02:25:00,
2013-03-26 21:30:00,37.4,1.0,30.21,SSE,150,5.0,6.0,21,0.00,,,0.00,meteohub,2013-03-27 02:30:00,
2013-03-26 21:35:00,37.4,1.0,30.21,SSE,151,6.0,6.0,21,0.00,,,0.00,meteohub,2013-03-27 02:35:00,
2013-03-26 21:41:00,37.4,1.0,30.21,SSE,149,5.0,6.0,21,0.00,,,0.00,meteohub,2013-03-27 02:41:00,
2013-03-26 21:47:00,37.2,1.9,30.21,SSE,147,4.0,6.0,22,0.00,,,0.00,meteohub,2013-03-27 02:47:00,
2013-03-26 21:52:00,37.0,1.8,30.21,SSE,147,2.0,6.0,22,0.00,,,0.00,meteohub,2013-03-27 02:52:00,
2013-03-26 21:57:00,36.9,1.6,30.21,SSE,147,4.0,6.0,22,0.00,,,0.00,meteohub,2013-03-27 02:57:00,
2013-03-26 22:03:00,36.7,1.4,30.18,SE,146,5.0,6.0,22,0.00,,,0.00,meteohub,2013-03-27 03:03:00,
2013-03-26 22:08:00,36.7,1.4,30.18,SE,144,4.0,6.0,22,0.00,,,0.00,meteohub,2013-03-27 03:08:00,
2013-03-26 22:13:00,36.7,1.4,30.18,SE,144,4.0,6.0,22,0.00,,,0.00,meteohub,2013-03-27 03:13:00,
2013-03-26 22:18:00,36.5,1.2,30.18,SE,145,4.0,6.0,22,0.00,,,0.00,meteohub,2013-03-27 03:18:00,
2013-03-26 22:23:00,36.5,1.2,30.18,SSE,152,4.0,6.0,22,0.00,,,0.00,meteohub,2013-03-27 03:23:00,
2013-03-26 22:29:00,36.3,1.0,30.18,SSE,156,5.0,6.0,22,0.00,,,0.00,meteohub,2013-03-27 03:29:00,
2013-03-26 22:34:00,36.3,1.0,30.18,SSE,155,8.0,8.0,22,0.00,,,0.00,meteohub,2013-03-27 03:34:00,
2013-03-26 22:39:00,36.3,1.0,30.18,SE,145,6.0,8.0,22,0.00,,,0.00,meteohub,2013-03-27 03:39:00,
2013-03-26 22:44:00,36.3,1.0,30.18,South,172,7.0,9.0,22,0.00,,,0.00,meteohub,2013-03-27 03:44:00,
2013-03-26 22:50:00,36.1,0.9,30.18,SSE,164,8.0,9.0,22,0.00,,,0.00,meteohub,2013-03-27 03:50:00,
2013-03-26 22:55:00,36.0,0.9,30.18,South,173,6.0,9.0,22,0.00,,,0.00,meteohub,2013-03-27 03:55:00,
2013-03-26 23:00:00,35.6,0.5,30.18,SSE,168,7.0,9.0,22,0.00,,,0.00,meteohub,2013-03-27 04:00:00,
2013-03-26 23:01:00,35.6,0.5,30.18,South,175,8.0,9.0,22,0.00,,,0.00,meteohub,2013-03-27 04:01:00,
2013-03-26 23:02:00,35.6,0.5,30.18,South,169,6.0,9.0,22,0.00,,,0.00,meteohub,2013-03-27 04:02:00,
2013-03-26 23:07:00,35.2,0.1,30.18,SSE,156,4.0,9.0,22,0.00,,,0.00,meteohub,2013-03-27 04:07:00,
2013-03-26 23:13:00,35.1,0.0,30.18,South,185,8.0,9.0,22,0.00,,,0.00,meteohub,2013-03-27 04:13:00,
2013-03-26 23:18:00,34.9,0.0,30.18,SSE,167,8.0,9.0,22,0.00,,,0.00,meteohub,2013-03-27 04:18:00,
2013-03-26 23:23:00,34.7,-0.2,30.18,South,174,5.0,9.0,22,0.00,,,0.00,meteohub,2013-03-27 04:23:00,
2013-03-26 23:28:00,34.5,-0.4,30.18,SSE,165,6.0,10.0,22,0.00,,,0.00,meteohub,2013-03-27 04:28:00,
2013-03-26 23:33:00,34.3,-0.6,30.21,South,190,6.0,10.0,22,0.00,,,0.00,meteohub,2013-03-27 04:33:00,
2013-03-26 23:39:00,34.2,-0.8,30.21,SSW,206,5.0,9.0,22,0.00,,,0.00,meteohub,2013-03-27 04:39:00,
2013-03-26 23:44:00,34.0,1.8,30.21,South,177,5.0,9.0,25,0.00,,,0.00,meteohub,2013-03-27 04:44:00,
2013-03-26 23:49:00,34.0,1.8,30.21,South,184,6.0,9.0,25,0.00,,,0.00,meteohub,2013-03-27 04:49:00,
2013-03-26 23:54:00,33.8,1.8,30.21,SSW,194,5.0,9.0,25,0.00,,,0.00,meteohub,2013-03-27 04:54:00,
2013-03-26 23:59:00,33.6,1.6,30.21,SSW,193,5.0,9.0,25,0.00,,,0.00,meteohub,2013-03-27 04:59:00,